Hourly Weather Russkiy Saskul

Today, 16 April, Friday

Time Temperature Precipitation Wind Pressure Humidity
00:00 +11°C° 0 mm 1 mps 755 mmHg 75%
01:00 +10°C° 0 mm 1 mps 755 mmHg 77%
02:00 +10°C° 0 mm 1 mps 755 mmHg 77%
03:00 +9°C° 0 mm 1 mps 755 mmHg 77%
04:00 +9°C° 0 mm 1 mps 755 mmHg 79%
05:00 +9°C° 0 mm 1 mps 755 mmHg 76%
06:00 +10°C° 0 mm 1 mps 755 mmHg 73%
07:00 +11°C° 0 mm 1 mps 754 mmHg 70%
08:00 +13°C° 0 mm 1 mps 754 mmHg 63%
09:00 +15°C° 0 mm 1 mps 754 mmHg 56%
10:00 +18°C° 0 mm 1 mps 754 mmHg 48%
11:00 +19°C° 0 mm 1 mps 754 mmHg 44%
12:00 +20°C° 0 mm 1 mps 754 mmHg 40%
13:00 +21°C° 0 mm 1 mps 754 mmHg 36%
14:00 +21°C° 0 mm 2 mps 754 mmHg 36%
15:00 +21°C° 0 mm 2 mps 754 mmHg 35%
16:00 +21°C° 0 mm 2 mps 754 mmHg 34%
17:00 +19°C° 0 mm 2 mps 754 mmHg 43%
18:00 +18°C° 0 mm 2 mps 754 mmHg 51%
19:00 +16°C° 0 mm 2 mps 754 mmHg 60%
20:00 +15°C° 0 mm 2 mps 754 mmHg 67%
21:00 +14°C° 0 mm 2 mps 754 mmHg 73%
22:00 +13°C° 0 mm 2 mps 755 mmHg 80%
23:00 +12°C° 0 mm 2 mps 755 mmHg 83%

Tomorrow, 17 April, Saturday

Time Temperature Precipitation Wind Pressure Humidity
00:00 +11°C° 0 mm 1 mps 755 mmHg 85%
01:00 +10°C° 0 mm 1 mps 755 mmHg 87%
02:00 +10°C° 0 mm 1 mps 755 mmHg 88%
03:00 +9°C° 0 mm 1 mps 756 mmHg 89%
04:00 +9°C° 0 mm 1 mps 756 mmHg 90%
05:00 +9°C° 0 mm 1 mps 756 mmHg 88%
06:00 +10°C° 0 mm 1 mps 756 mmHg 86%
07:00 +10°C° 0 mm 1 mps 756 mmHg 84%
08:00 +12°C° 0 mm 1 mps 756 mmHg 77%
09:00 +13°C° 0 mm 1 mps 756 mmHg 70%
10:00 +15°C° 0 mm 1 mps 756 mmHg 64%
11:00 +15°C° 0 mm 1 mps 756 mmHg 60%
12:00 +16°C° 0 mm 2 mps 756 mmHg 57%
13:00 +17°C° 0 mm 2 mps 755 mmHg 53%
14:00 +17°C° 0 mm 3 mps 755 mmHg 54%
15:00 +17°C° 0 mm 3 mps 755 mmHg 54%
16:00 +17°C° 0 mm 3 mps 755 mmHg 54%
17:00 +16°C° 0 mm 3 mps 755 mmHg 59%
18:00 +14°C° 0 mm 3 mps 755 mmHg 65%
19:00 +12°C° 0 mm 3 mps 755 mmHg 70%
20:00 +11°C° 0 mm 3 mps 755 mmHg 70%
21:00 +10°C° 0 mm 3 mps 755 mmHg 70%
22:00 +9°C° 0 mm 3 mps 755 mmHg 70%
23:00 +8°C° 0 mm 3 mps 755 mmHg 70%

Day after tomorrow, 18 April, Sunday

Time Temperature Precipitation Wind Pressure Humidity
00:00 +7°C° 0 mm 3 mps 755 mmHg 70%
01:00 +6°C° 0 mm 2 mps 755 mmHg 69%
02:00 +6°C° 0 mm 2 mps 756 mmHg 72%
03:00 +5°C° 0 mm 2 mps 756 mmHg 74%
04:00 +4°C° 0 mm 2 mps 756 mmHg 76%
05:00 +5°C° 0 mm 2 mps 756 mmHg 73%
06:00 +4°C° 0 mm 3 mps 756 mmHg 70%
07:00 +5°C° 0 mm 3 mps 756 mmHg 67%
08:00 +6°C° 0 mm 4 mps 756 mmHg 60%
09:00 +8°C° 0 mm 4 mps 756 mmHg 53%
10:00 +9°C° 0 mm 5 mps 756 mmHg 46%
11:00 +10°C° 0 mm 5 mps 756 mmHg 43%
12:00 +12°C° 0 mm 5 mps 756 mmHg 41%
13:00 +13°C° 0 mm 5 mps 756 mmHg 39%
14:00 +13°C° 0 mm 5 mps 756 mmHg 39%
15:00 +13°C° 0 mm 5 mps 756 mmHg 40%
16:00 +13°C° 0 mm 5 mps 755 mmHg 40%
17:00 +12°C° 0 mm 5 mps 756 mmHg 45%
18:00 +10°C° 0 mm 5 mps 756 mmHg 50%
19:00 +9°C° 0 mm 5 mps 756 mmHg 55%
20:00 +8°C° 0 mm 5 mps 756 mmHg 60%
21:00 +7°C° 0 mm 5 mps 757 mmHg 64%
22:00 +6°C° 0 mm 5 mps 757 mmHg 68%
23:00 +5°C° 0 mm 5 mps 758 mmHg 64%

19 April, Monday

Time Temperature Precipitation Wind Pressure Humidity
00:00 +3°C° 0 mm 5 mps 758 mmHg 60%
01:00 +2°C° 0 mm 5 mps 759 mmHg 56%
02:00 +2°C° 0 mm 5 mps 759 mmHg 55%
03:00 +2°C° 0 mm 5 mps 759 mmHg 54%
04:00 +1°C° 0 mm 5 mps 760 mmHg 52%
05:00 +1°C° 0 mm 5 mps 760 mmHg 53%
06:00 +1°C° 0 mm 5 mps 761 mmHg 54%
07:00 0°C° 0 mm 5 mps 761 mmHg 54%
08:00 +1°C° 0 mm 5 mps 761 mmHg 52%
09:00 +3°C° 0 mm 4 mps 761 mmHg 50%
10:00 +3°C° 0 mm 4 mps 762 mmHg 48%
11:00 +4°C° 0 mm 4 mps 762 mmHg 45%
12:00 +5°C° 0 mm 5 mps 762 mmHg 42%
13:00 +6°C° 0 mm 5 mps 762 mmHg 39%
14:00 +7°C° 0 mm 5 mps 762 mmHg 37%
15:00 +7°C° 0 mm 5 mps 762 mmHg 35%
16:00 +7°C° 0 mm 5 mps 762 mmHg 33%
17:00 +6°C° 0 mm 5 mps 762 mmHg 34%
18:00 +5°C° 0 mm 5 mps 762 mmHg 36%
19:00 +3°C° 0 mm 5 mps 763 mmHg 38%
20:00 +2°C° 0 mm 5 mps 763 mmHg 39%
21:00 +1°C° 0 mm 5 mps 764 mmHg 40%
22:00 0°C° 0 mm 4 mps 764 mmHg 41%
23:00 -1°C° 0 mm 4 mps 764 mmHg 42%

20 April, Tuesday

Time Temperature Precipitation Wind Pressure Humidity
00:00 -2°C° 0 mm 4 mps 765 mmHg 44%
01:00 -1°C° 0 mm 3 mps 765 mmHg 46%
02:00 -2°C° 0 mm 3 mps 765 mmHg 45%
03:00 -2°C° 0 mm 3 mps 765 mmHg 45%
04:00 -2°C° 0 mm 3 mps 765 mmHg 45%
05:00 -2°C° 0 mm 4 mps 765 mmHg 42%
06:00 -2°C° 0 mm 4 mps 766 mmHg 39%
07:00 -1°C° 0 mm 4 mps 766 mmHg 36%
08:00 0°C° 0 mm 4 mps 766 mmHg 32%
09:00 +3°C° 0 mm 4 mps 766 mmHg 29%
10:00 +4°C° 0 mm 4 mps 766 mmHg 26%
11:00 +6°C° 0 mm 4 mps 765 mmHg 24%
12:00 +7°C° 0 mm 4 mps 765 mmHg 23%
13:00 +8°C° 0 mm 4 mps 765 mmHg 22%
14:00 +10°C° 0 mm 3 mps 764 mmHg 22%
15:00 +10°C° 0 mm 3 mps 764 mmHg 21%
16:00 +10°C° 0 mm 3 mps 764 mmHg 21%
17:00 +9°C° 0 mm 3 mps 764 mmHg 27%
18:00 +8°C° 0 mm 3 mps 764 mmHg 33%
19:00 +7°C° 0 mm 3 mps 764 mmHg 39%
20:00 +4°C° 0 mm 3 mps 764 mmHg 42%
21:00 +3°C° 0 mm 3 mps 764 mmHg 45%
22:00 +2°C° 0 mm 3 mps 764 mmHg 48%
23:00 +1°C° 0 mm 3 mps 764 mmHg 49%

21 April, Wednesday

Time Temperature Precipitation Wind Pressure Humidity
00:00 +2°C° 0 mm 2 mps 764 mmHg 50%
01:00 +1°C° 0 mm 2 mps 764 mmHg 52%
02:00 +1°C° 0 mm 2 mps 765 mmHg 52%
03:00 -1°C° 0 mm 2 mps 765 mmHg 52%
04:00 -1°C° 0 mm 2 mps 765 mmHg 52%
05:00 +1°C° 0 mm 2 mps 765 mmHg 49%
06:00 +2°C° 0 mm 2 mps 765 mmHg 46%
07:00 +3°C° 0 mm 2 mps 765 mmHg 42%
08:00 +5°C° 0 mm 2 mps 765 mmHg 38%
09:00 +7°C° 0 mm 3 mps 764 mmHg 33%
10:00 +9°C° 0 mm 3 mps 764 mmHg 28%
11:00 +10°C° 0 mm 3 mps 764 mmHg 26%
12:00 +12°C° 0 mm 4 mps 763 mmHg 24%
13:00 +13°C° 0 mm 4 mps 763 mmHg 23%
14:00 +14°C° 0 mm 4 mps 763 mmHg 23%
15:00 +14°C° 0 mm 4 mps 762 mmHg 23%
16:00 +15°C° 0 mm 5 mps 762 mmHg 23%
17:00 +13°C° 0 mm 4 mps 762 mmHg 29%
18:00 +12°C° 0 mm 3 mps 763 mmHg 36%
19:00 +10°C° 0 mm 3 mps 763 mmHg 42%
20:00 +9°C° 0 mm 3 mps 763 mmHg 45%
21:00 +8°C° 0 mm 3 mps 763 mmHg 48%
22:00 +5°C° 0 mm 3 mps 763 mmHg 51%
23:00 +6°C° 0 mm 2 mps 763 mmHg 52%
Show more